Retour au catalogue

STARLINK-36800

ActifCommunicationsSSO
NORAD 67797·PAYLOAD·🇺🇸 United States

Lancé Feb 15, 2026 depuis Vandenberg Space Force Base

Loading…

Prochains Passages (prochaines 24 heures)

TLE

FraisSource: CelesTrak SupGP

Époque: Sep 14, 2026, 21:13 UTC

1 67797C 26032A   26257.88451389  .00084702  00000+0  26305-2 0  2572
2 67797  97.2854  84.4385 0001646  92.0340 114.4162 15.33382062    13

Suivez STARLINK-36800 en temps réel avec AllMySat

Download on the App Store